Location: *
(46.0770°N, 1.6444°E)
Time: 20:08:07
(UTC+00:00)

Cosmos 2297 Rocket - Pass Details

Date: 16 September 2019
Orbit: 841 x 842 km, 71.0° (Epoch: 15 October)

Event Time Altitude Azimuth Distance (km) Brightness Sun altitude
Exits shadow 21:30:02 22° 246° (WSW) 1,771 4.0 -32.7°
Maximum altitude 21:33:17 42° 305° (NW) 1,188 3.3 -33.0°
Drops below altitude 10° 21:38:39 10° 15° (NNE) 2,471 5.0 -33.6°
Sets 21:41:15 0° 23° (NNE) 3,409 5.7 -33.9°
